CFG6HE EDDF-EDDM

Flight info

Callsign CFG6HE
Flight time 0h 36m
Altitude 23000
Route CINDY8S/18 CINDY Z74 HAREM T104 ROKIL ROKIL1B
Aircraft A320/M-SDE3FGHIRWY/LB1

Departure

Time 2026-05-07 13:57
Airport Frankfurt Main Airport (EDDF)

Arrival

Time 2026-05-07 14:33
Airport Munich Airport (EDDM)
Time Latitude Longitude Altitude Speed Heading
2026-05-07 13:32 50.03069 8.57336 357 ft 0 kts 25°
2026-05-07 13:40 50.03055 8.57326 362 ft 4 kts 25°
2026-05-07 13:40 50.03030 8.57309 359 ft 4 kts 25°
2026-05-07 13:40 50.03010 8.57295 363 ft 3 kts 24°
2026-05-07 13:40 50.02985 8.57285 354 ft 4 kts 349°
2026-05-07 13:41 50.02965 8.57303 353 ft 4 kts 301°
2026-05-07 13:41 50.02954 8.57338 360 ft 4 kts 295°
2026-05-07 13:41 50.02945 8.57368 353 ft 0 kts 295°
2026-05-07 13:47 50.02946 8.57364 353 ft 3 kts 295°
2026-05-07 13:47 50.02967 8.57294 358 ft 12 kts 295°
2026-05-07 13:47 50.03010 8.57154 360 ft 16 kts 295°
2026-05-07 13:47 50.03055 8.56995 355 ft 16 kts 293°
2026-05-07 13:48 50.03121 8.56920 359 ft 11 kts 340°
2026-05-07 13:48 50.03187 8.56882 353 ft 10 kts 339°
2026-05-07 13:48 50.03248 8.56846 357 ft 9 kts 335°
2026-05-07 13:48 50.03267 8.56753 350 ft 12 kts 256°
2026-05-07 13:49 50.03229 8.56591 355 ft 19 kts 250°
2026-05-07 13:49 50.03176 8.56366 352 ft 24 kts 250°
2026-05-07 13:49 50.03114 8.56112 351 ft 26 kts 250°
2026-05-07 13:49 50.03049 8.55835 346 ft 28 kts 249°
2026-05-07 13:50 50.02979 8.55550 346 ft 29 kts 250°
2026-05-07 13:50 50.02910 8.55259 348 ft 29 kts 249°
2026-05-07 13:50 50.02843 8.54981 350 ft 19 kts 249°
2026-05-07 13:50 50.02802 8.54808 348 ft 12 kts 250°
2026-05-07 13:51 50.02769 8.54669 339 ft 15 kts 250°
2026-05-07 13:51 50.02730 8.54503 341 ft 18 kts 250°
2026-05-07 13:51 50.02684 8.54310 336 ft 20 kts 253°
2026-05-07 13:51 50.02639 8.54084 334 ft 24 kts 249°
2026-05-07 13:52 50.02579 8.53832 332 ft 26 kts 250°
2026-05-07 13:52 50.02520 8.53584 335 ft 18 kts 250°
2026-05-07 13:52 50.02483 8.53426 337 ft 17 kts 250°
2026-05-07 13:52 50.02439 8.53244 333 ft 19 kts 249°
2026-05-07 13:53 50.02388 8.53034 334 ft 22 kts 249°
2026-05-07 13:53 50.02340 8.52838 333 ft 11 kts 249°
2026-05-07 13:53 50.02325 8.52774 335 ft 5 kts 249°
2026-05-07 13:53 50.02322 8.52763 335 ft 0 kts 249°
2026-05-07 13:55 50.02316 8.52737 331 ft 11 kts 249°
2026-05-07 13:55 50.02295 8.52607 331 ft 7 kts 225°
2026-05-07 13:55 50.02273 8.52605 335 ft 0 kts 178°
2026-05-07 13:56 50.02163 8.52607 335 ft 49 kts 180°
2026-05-07 13:57 50.01568 8.52610 333 ft 118 kts 179°
2026-05-07 13:57 50.00569 8.52639 446 ft 160 kts 183°
2026-05-07 13:57 49.99462 8.52678 1173 ft 158 kts 181°
2026-05-07 13:57 49.98362 8.52681 1936 ft 158 kts 181°
2026-05-07 13:58 49.97236 8.52922 2465 ft 174 kts 160°
2026-05-07 13:58 49.96188 8.54054 2774 ft 197 kts 129°
2026-05-07 13:58 49.95438 8.55980 3097 ft 221 kts 118°
2026-05-07 13:58 49.94665 8.58144 3671 ft 234 kts 118°
2026-05-07 13:59 49.94093 8.60525 4480 ft 241 kts 98°
2026-05-07 13:59 49.93962 8.63170 5183 ft 250 kts 92°
2026-05-07 13:59 49.93842 8.65893 6051 ft 255 kts 97°
2026-05-07 13:59 49.93343 8.68546 6882 ft 260 kts 115°
2026-05-07 14:00 49.92343 8.70887 7677 ft 264 kts 133°
2026-05-07 14:00 49.90905 8.72751 8325 ft 279 kts 145°
2026-05-07 14:00 49.89309 8.74611 9076 ft 291 kts 139°
2026-05-07 14:00 49.87952 8.76954 9971 ft 297 kts 124°
2026-05-07 14:01 49.86866 8.79773 10510 ft 316 kts 119°
2026-05-07 14:01 49.85750 8.82850 10832 ft 339 kts 119°
2026-05-07 14:01 49.84598 8.86054 11193 ft 350 kts 119°
2026-05-07 14:01 49.83394 8.89402 12078 ft 353 kts 119°
2026-05-07 14:02 49.82191 8.92735 12944 ft 357 kts 119°
2026-05-07 14:02 49.80967 8.96109 13771 ft 361 kts 119°
2026-05-07 14:02 49.79724 8.99518 14492 ft 366 kts 119°
2026-05-07 14:02 49.78462 9.02971 15207 ft 370 kts 119°
2026-05-07 14:03 49.77193 9.06458 15920 ft 374 kts 119°
2026-05-07 14:03 49.76111 9.10135 16584 ft 379 kts 109°
2026-05-07 14:03 49.75405 9.14091 17276 ft 383 kts 105°
2026-05-07 14:03 49.74465 9.17969 17952 ft 388 kts 116°
2026-05-07 14:04 49.73064 9.21538 18612 ft 391 kts 128°
2026-05-07 14:04 49.71303 9.24752 19218 ft 394 kts 132°
2026-05-07 14:04 49.69483 9.27944 19848 ft 397 kts 132°
2026-05-07 14:04 49.67657 9.31160 20472 ft 400 kts 132°
2026-05-07 14:05 49.65819 9.34407 21113 ft 403 kts 132°
2026-05-07 14:05 49.63963 9.37687 21740 ft 407 kts 132°
2026-05-07 14:05 49.62095 9.40983 22346 ft 410 kts 132°
2026-05-07 14:05 49.60210 9.44306 22876 ft 413 kts 132°
2026-05-07 14:06 49.58315 9.47643 23030 ft 415 kts 132°
2026-05-07 14:06 49.56425 9.50964 23044 ft 419 kts 132°
2026-05-07 14:06 49.55122 9.53251 23041 ft 421 kts 132°
2026-05-07 14:06 49.53194 9.56629 23048 ft 421 kts 132°
2026-05-07 14:07 49.50627 9.61121 23045 ft 421 kts 132°
2026-05-07 14:07 49.48692 9.64503 23046 ft 421 kts 132°
2026-05-07 14:07 49.46752 9.67890 23053 ft 422 kts 132°
2026-05-07 14:07 49.44811 9.71269 23053 ft 421 kts 132°
2026-05-07 14:08 49.43501 9.73545 23046 ft 421 kts 133°
2026-05-07 14:08 49.41556 9.76918 23057 ft 421 kts 133°
2026-05-07 14:08 49.39612 9.80287 23059 ft 421 kts 133°
2026-05-07 14:08 49.37671 9.83653 23058 ft 421 kts 133°
2026-05-07 14:09 49.35728 9.87015 23053 ft 422 kts 132°
2026-05-07 14:09 49.33777 9.90385 23053 ft 422 kts 132°
2026-05-07 14:09 49.31823 9.93749 23042 ft 423 kts 133°
2026-05-07 14:09 49.29866 9.97115 23033 ft 424 kts 133°
2026-05-07 14:10 49.27907 10.00487 23027 ft 424 kts 133°
2026-05-07 14:10 49.25967 10.03822 23027 ft 425 kts 133°
2026-05-07 14:10 49.24001 10.07200 23026 ft 426 kts 133°
2026-05-07 14:10 49.22003 10.10623 23024 ft 426 kts 133°
2026-05-07 14:11 49.20053 10.13958 23030 ft 426 kts 133°
2026-05-07 14:11 49.18074 10.17335 23032 ft 426 kts 133°
2026-05-07 14:11 49.16095 10.20705 23034 ft 427 kts 133°
2026-05-07 14:11 49.14114 10.24081 23040 ft 427 kts 133°
2026-05-07 14:12 49.12115 10.27426 23035 ft 427 kts 134°
2026-05-07 14:12 49.10074 10.30740 23052 ft 426 kts 135°
2026-05-07 14:12 49.08033 10.33996 23058 ft 426 kts 135°
2026-05-07 14:12 49.05977 10.37257 23060 ft 427 kts 135°
2026-05-07 14:13 49.03918 10.40519 23039 ft 427 kts 135°
2026-05-07 14:13 49.01860 10.43787 23041 ft 427 kts 135°
2026-05-07 14:13 48.99808 10.47061 23052 ft 428 kts 135°
2026-05-07 14:13 48.97753 10.50348 23048 ft 428 kts 135°
2026-05-07 14:14 48.95702 10.53627 23056 ft 428 kts 135°
2026-05-07 14:14 48.93645 10.56907 23052 ft 428 kts 135°
2026-05-07 14:14 48.91589 10.60177 23066 ft 428 kts 135°
2026-05-07 14:14 48.89528 10.63452 23067 ft 428 kts 135°
2026-05-07 14:15 48.87469 10.66717 23073 ft 428 kts 135°
2026-05-07 14:15 48.85412 10.69974 23080 ft 427 kts 135°
2026-05-07 14:15 48.83354 10.73228 23070 ft 426 kts 135°
2026-05-07 14:15 48.81304 10.76471 23067 ft 426 kts 135°
2026-05-07 14:16 48.79252 10.79711 23044 ft 425 kts 135°
2026-05-07 14:16 48.77204 10.82934 22409 ft 426 kts 135°
2026-05-07 14:16 48.75129 10.86183 21476 ft 430 kts 135°
2026-05-07 14:16 48.73052 10.89427 20785 ft 428 kts 135°
2026-05-07 14:17 48.70989 10.92647 20167 ft 424 kts 135°
2026-05-07 14:17 48.68944 10.95838 19592 ft 420 kts 135°
2026-05-07 14:17 48.66918 10.98994 19028 ft 416 kts 135°
2026-05-07 14:17 48.64905 11.02122 18483 ft 413 kts 136°
2026-05-07 14:18 48.62910 11.05223 17874 ft 410 kts 136°
2026-05-07 14:18 48.60931 11.08292 17239 ft 403 kts 136°
2026-05-07 14:18 48.59024 11.11252 16711 ft 383 kts 136°
2026-05-07 14:18 48.57065 11.13843 15961 ft 369 kts 147°
2026-05-07 14:19 48.55016 11.16099 15106 ft 363 kts 139°
2026-05-07 14:19 48.53451 11.19059 14309 ft 361 kts 121°
2026-05-07 14:19 48.52560 11.22567 13465 ft 359 kts 103°
2026-05-07 14:19 48.52377 11.26288 12539 ft 356 kts 85°
2026-05-07 14:20 48.52833 11.29916 12123 ft 350 kts 76°
2026-05-07 14:20 48.53364 11.33501 11805 ft 351 kts 77°
2026-05-07 14:20 48.53867 11.37079 11473 ft 347 kts 78°
2026-05-07 14:20 48.54349 11.40582 11148 ft 345 kts 78°
2026-05-07 14:21 48.54842 11.44167 10819 ft 343 kts 78°
2026-05-07 14:21 48.55327 11.47677 10496 ft 341 kts 77°
2026-05-07 14:21 48.55803 11.51090 10302 ft 330 kts 77°
2026-05-07 14:21 48.56269 11.54407 10181 ft 317 kts 77°
2026-05-07 14:22 48.56660 11.57635 9970 ft 309 kts 85°
2026-05-07 14:22 48.56604 11.60834 9808 ft 304 kts 99°
2026-05-07 14:22 48.56078 11.63914 9570 ft 302 kts 111°
2026-05-07 14:22 48.55381 11.66897 9295 ft 301 kts 110°
2026-05-07 14:23 48.54693 11.69874 9016 ft 300 kts 110°
2026-05-07 14:23 48.54011 11.72840 8745 ft 299 kts 110°
2026-05-07 14:23 48.53332 11.75799 8466 ft 298 kts 110°
2026-05-07 14:23 48.52657 11.78743 8198 ft 297 kts 110°
2026-05-07 14:24 48.51984 11.81674 7921 ft 296 kts 110°
2026-05-07 14:24 48.51310 11.84598 7659 ft 294 kts 110°
2026-05-07 14:24 48.50637 11.87511 7391 ft 293 kts 110°
2026-05-07 14:24 48.49967 11.90408 7125 ft 293 kts 110°
2026-05-07 14:25 48.49296 11.93311 6848 ft 292 kts 110°
2026-05-07 14:25 48.48628 11.96193 6580 ft 290 kts 110°
2026-05-07 14:25 48.47962 11.99059 6313 ft 289 kts 110°
2026-05-07 14:25 48.47297 12.01911 6039 ft 288 kts 110°
2026-05-07 14:26 48.46607 12.04853 5796 ft 322 kts 110°
2026-05-07 14:26 48.45796 12.08288 5658 ft 371 kts 110°
2026-05-07 14:26 48.44905 12.12072 5481 ft 378 kts 110°
2026-05-07 14:26 48.44061 12.15581 5354 ft 335 kts 114°
2026-05-07 14:27 48.42774 12.18210 5267 ft 296 kts 145°
2026-05-07 14:27 48.41019 12.19280 5198 ft 258 kts 181°
2026-05-07 14:27 48.39406 12.18680 5095 ft 230 kts 219°
2026-05-07 14:27 48.38548 12.16863 5002 ft 207 kts 262°
2026-05-07 14:28 48.38749 12.14822 5011 ft 201 kts 292°
2026-05-07 14:28 48.39109 12.12815 5002 ft 201 kts 266°
2026-05-07 14:28 48.38844 12.10735 5003 ft 203 kts 262°
2026-05-07 14:28 48.38665 12.08626 4910 ft 204 kts 265°
2026-05-07 14:29 48.38514 12.06513 4682 ft 202 kts 265°
2026-05-07 14:29 48.38361 12.04419 4429 ft 200 kts 265°
2026-05-07 14:29 48.38208 12.02341 4153 ft 200 kts 265°
2026-05-07 14:29 48.38056 12.00302 3889 ft 197 kts 265°
2026-05-07 14:30 48.37905 11.98284 3615 ft 188 kts 265°
2026-05-07 14:30 48.37763 11.96390 3407 ft 179 kts 265°
2026-05-07 14:30 48.37629 11.94600 3168 ft 164 kts 266°
2026-05-07 14:30 48.37508 11.93010 2948 ft 145 kts 266°
2026-05-07 14:31 48.37400 11.91568 2769 ft 134 kts 267°
2026-05-07 14:31 48.37298 11.90207 2575 ft 129 kts 267°
2026-05-07 14:31 48.37198 11.88875 2396 ft 128 kts 267°
2026-05-07 14:31 48.37098 11.87549 2211 ft 127 kts 269°
2026-05-07 14:32 48.36997 11.86207 2045 ft 130 kts 266°
2026-05-07 14:32 48.36895 11.84857 1869 ft 128 kts 266°
2026-05-07 14:32 48.36794 11.83528 1687 ft 127 kts 268°
2026-05-07 14:32 48.36692 11.82185 1540 ft 129 kts 266°
2026-05-07 14:33 48.36594 11.80895 1481 ft 112 kts 265°
2026-05-07 14:33 48.36525 11.79989 1479 ft 62 kts 263°
2026-05-07 14:33 48.36493 11.79561 1471 ft 31 kts 264°
2026-05-07 14:33 48.36469 11.79255 1475 ft 28 kts 263°
2026-05-07 14:34 48.36421 11.78979 1477 ft 27 kts 244°
2026-05-07 14:34 48.36316 11.78746 1478 ft 27 kts 236°
2026-05-07 14:34 48.36206 11.78515 1481 ft 27 kts 234°
2026-05-07 14:34 48.36126 11.78317 1485 ft 12 kts 260°
2026-05-07 14:35 48.36116 11.78201 1485 ft 14 kts 263°
2026-05-07 14:35 48.36101 11.77984 1485 ft 27 kts 264°
2026-05-07 14:35 48.36083 11.77749 1478 ft 11 kts 264°
2026-05-07 14:35 48.36044 11.77661 1477 ft 11 kts 183°
2026-05-07 14:36 48.35973 11.77675 1477 ft 10 kts 172°
2026-05-07 14:36 48.35908 11.77686 1480 ft 9 kts 174°
2026-05-07 14:36 48.35818 11.77700 1475 ft 20 kts 174°
2026-05-07 14:36 48.35687 11.77724 1485 ft 13 kts 174°
2026-05-07 14:37 48.35604 11.77737 1482 ft 11 kts 174°
2026-05-07 14:37 48.35456 11.77771 1476 ft 12 kts 177°
2026-05-07 14:37 48.35353 11.77798 1477 ft 13 kts 142°
2026-05-07 14:38 48.35339 11.77917 1485 ft 12 kts 83°
2026-05-07 14:38 48.35348 11.78033 1477 ft 11 kts 83°
2026-05-07 14:38 48.35345 11.78138 1481 ft 10 kts 116°
2026-05-07 14:38 48.35286 11.78171 1485 ft 11 kts 174°
2026-05-07 14:39 48.35176 11.78189 1482 ft 20 kts 174°
2026-05-07 14:39 48.35038 11.78215 1476 ft 12 kts 172°
2026-05-07 14:39 48.34989 11.78233 1475 ft 6 kts 137°
2026-05-07 14:39 48.34991 11.78295 1485 ft 7 kts 82°
2026-05-07 14:40 48.34997 11.78364 1485 ft 6 kts 83°
2026-05-07 14:40 48.34998 11.78379 1485 ft 0 kts 83°